Morris, IL

5:10 AM CDT on April 25, 2017 (GMT -0500)
Morris

Weather History for KC09 - September, 2013

Change the Weather History Date:

Thursday, September 5, 2013

  Actual Average (KARR) Record (KARR)
Temperature  
Mean Temperature 68 °F -  
Max Temperature 78 °F 77 °F 90 °F (1999)
Min Temperature 59 °F 52 °F 43 °F (2003)
Cooling Degree Days 3    
Growing Degree Days 18 (Base 50)    
Moisture  
Dew Point 59 °F    
Average Humidity 75    
Maximum Humidity 100    
Minimum Humidity 45    
Precipitation  
Precipitation 0.00 in - - ()
Sea Level Pressure  
Sea Level Pressure 30.19 in    
Wind  
Wind Speed 2 mph (ENE)    
Max Wind Speed 10 mph    
Max Gust Speed 16 mph    
Visibility 10 miles    
Events      
Averages and records for this station are not official NWS values.
T = Trace of Precipitation, MM = Missing Value Source: NWS Daily Summary

Daily Weather History Graph

Daily Weather History Graph

Search for Another Location

Airport or City:

Trip Planner

Search our weather history database for the weather conditions in past years. The results will help you decide how hot, cold, wet, or windy it might be!

Date:

Astronomy

Sep. 05, 2013 Rise Set
Actual Time 6:24 AM CDT 7:19 PM CDT
Civil Twilight 5:55 AM CDT 7:47 PM CDT
Nautical Twilight 5:22 AM CDT 8:21 PM CDT
Astronomical Twilight 4:47 AM CDT 8:55 PM CDT
Moon 6:36 AM CDT (9/5) 7:10 PM CDT (9/5)
Length of Visible Light 13h 51m
Length of Day
12h 55m
New Moon, 0% of the Moon is Illuminated
Sep 5
New Moon
Sep 12
First Quarter
Sep 19
Full
Sep 26
Last Quarter
Oct 4
New

Hourly Weather History & Observations

Time (CDT) Temp. Dew Point Humidity Pressure Visibility Wind Dir Wind Speed Gust Speed Precip Events Conditions
12:15 AM 63.7 °F 63.7 °F 100% 30.12 in 10.0 mi Calm Calm - N/A   Clear
12:35 AM 62.1 °F 62.1 °F 100% 30.12 in 10.0 mi Calm Calm - N/A   Clear
12:55 AM 63.7 °F 63.7 °F 100% 30.12 in 10.0 mi Calm Calm - N/A   Clear
1:15 AM 61.5 °F 61.5 °F 100% 30.12 in 10.0 mi Calm Calm - N/A   Clear
1:35 AM 62.4 °F 62.4 °F 100% 30.13 in 10.0 mi Calm Calm - N/A   Clear
1:55 AM 62.8 °F 62.8 °F 100% 30.13 in 10.0 mi Calm Calm - N/A   Clear
2:15 AM 64.0 °F 64.0 °F 100% 30.13 in 10.0 mi Calm Calm - N/A   Clear
2:35 AM 63.1 °F 63.1 °F 100% 30.14 in 10.0 mi Calm Calm - N/A   Clear
2:55 AM 64.0 °F 64.0 °F 100% 30.14 in 10.0 mi Calm Calm - N/A   Clear
3:15 AM 63.5 °F 63.5 °F 100% 30.14 in 10.0 mi Calm Calm - N/A   Clear
3:35 AM 62.2 °F 62.2 °F 100% 30.14 in 10.0 mi Calm Calm - N/A   Clear
3:55 AM 61.9 °F 61.9 °F 100% 30.15 in 10.0 mi Calm Calm - N/A   Clear
4:15 AM 61.9 °F 61.9 °F 100% 30.15 in 10.0 mi Calm Calm - N/A   Clear
4:35 AM 61.9 °F 61.9 °F 100% 30.15 in 10.0 mi Calm Calm - N/A   Clear
4:55 AM 61.2 °F 61.2 °F 100% 30.16 in 10.0 mi Calm Calm - N/A   Clear
5:15 AM 60.6 °F 60.6 °F 100% 30.16 in 10.0 mi Calm Calm - N/A   Clear
5:35 AM 61.0 °F 61.0 °F 100% 30.16 in 10.0 mi Calm Calm - N/A   Clear
5:55 AM 61.7 °F 61.7 °F 100% 30.17 in 10.0 mi Calm Calm - N/A   Clear
6:15 AM 61.5 °F 61.5 °F 100% 30.17 in 10.0 mi Calm Calm - N/A   Clear
6:35 AM 63.0 °F 63.0 °F 100% 30.17 in 10.0 mi Calm Calm - N/A   Clear
6:55 AM 64.0 °F 64.0 °F 100% 30.18 in 7.0 mi Calm Calm - N/A   Clear
7:15 AM 65.1 °F 65.1 °F 100% 30.19 in 7.0 mi Calm Calm - N/A   Clear
7:35 AM 65.8 °F 65.8 °F 100% 30.19 in 7.0 mi Calm Calm - N/A   Clear
7:55 AM 66.7 °F 66.7 °F 100% 30.19 in 7.0 mi Calm Calm - N/A   Clear
8:15 AM 68.0 °F 68.0 °F 100% 30.19 in 7.0 mi Calm Calm - N/A   Clear
8:35 AM 70.3 °F 70.2 °F 99% 30.19 in 10.0 mi ENE 4.6 mph - N/A   Clear
8:55 AM 71.6 °F 70.3 °F 96% 30.20 in 10.0 mi ENE 8.1 mph - N/A   Scattered Clouds
9:15 AM 72.5 °F 67.5 °F 84% 30.20 in 10.0 mi East 10.4 mph 16.1 mph N/A   Scattered Clouds
9:35 AM 72.9 °F 66.4 °F 80% 30.21 in 10.0 mi ENE 9.2 mph - N/A   Scattered Clouds
9:55 AM 73.4 °F 66.7 °F 80% 30.22 in 10.0 mi ENE 9.2 mph - N/A   Mostly Cloudy
10:15 AM 72.9 °F 67.1 °F 82% 30.23 in 10.0 mi ENE 6.9 mph - N/A   Overcast
10:35 AM 73.6 °F 65.1 °F 75% 30.23 in 10.0 mi ENE 6.9 mph - N/A   Scattered Clouds
10:55 AM 73.8 °F 64.6 °F 73% 30.23 in 10.0 mi ENE 4.6 mph - N/A   Clear
11:15 AM 74.7 °F 63.1 °F 67% 30.23 in 10.0 mi East 9.2 mph - N/A   Clear
11:35 AM 74.8 °F 61.3 °F 63% 30.23 in 10.0 mi East 10.4 mph 16.1 mph N/A   Clear
11:55 AM 73.9 °F 56.8 °F 55% 30.24 in 10.0 mi East 8.1 mph - N/A   Clear
12:15 PM 75.7 °F 57.6 °F 53% 30.24 in 10.0 mi East 8.1 mph - N/A   Clear
12:35 PM 77.2 °F 57.7 °F 51% 30.23 in 10.0 mi East 9.2 mph - N/A   Clear
12:55 PM 77.9 °F 55.9 °F 47% 30.24 in 10.0 mi ENE 10.4 mph - N/A   Clear
1:15 PM 76.1 °F 55.0 °F 48% 30.24 in 10.0 mi East 8.1 mph - N/A   Scattered Clouds
1:35 PM 75.2 °F 54.7 °F 49% 30.23 in 10.0 mi ENE 6.9 mph - N/A   Scattered Clouds
1:55 PM 75.7 °F 54.1 °F 47% 30.23 in 10.0 mi ENE 6.9 mph - N/A   Mostly Cloudy
2:15 PM 76.5 °F 54.0 °F 46% 30.23 in 10.0 mi East 9.2 mph - N/A   Mostly Cloudy
2:35 PM 76.1 °F 53.6 °F 45% 30.22 in 10.0 mi ENE 5.8 mph - N/A   Mostly Cloudy
2:55 PM 76.3 °F 54.1 °F 46% 30.22 in 10.0 mi ENE 8.1 mph - N/A   Mostly Cloudy
3:15 PM 76.5 °F 54.1 °F 46% 30.21 in 10.0 mi ENE 6.9 mph - N/A   Mostly Cloudy
3:35 PM 77.9 °F 54.9 °F 45% 30.21 in 10.0 mi East 8.1 mph - N/A   Clear
3:55 PM 77.2 °F 55.4 °F 47% 30.20 in 10.0 mi ENE 5.8 mph - N/A   Clear
4:15 PM 77.9 °F 55.9 °F 47% 30.20 in 10.0 mi East 6.9 mph - N/A   Clear
4:35 PM 77.7 °F 55.8 °F 47% 30.20 in 10.0 mi ENE 3.5 mph - N/A   Clear
4:55 PM 77.4 °F 55.9 °F 47% 30.20 in 10.0 mi ENE 6.9 mph - N/A   Clear
5:15 PM 76.6 °F 56.1 °F 49% 30.20 in 10.0 mi ENE 9.2 mph - N/A   Scattered Clouds
5:35 PM 75.2 °F 55.4 °F 50% 30.20 in 10.0 mi ENE 6.9 mph - N/A   Mostly Cloudy
5:55 PM 74.5 °F 53.8 °F 48% 30.20 in 10.0 mi East 8.1 mph - N/A   Scattered Clouds
6:15 PM 73.4 °F 54.5 °F 51% 30.19 in 10.0 mi ENE 6.9 mph - N/A   Clear
6:35 PM 72.1 °F 53.8 °F 52% 30.19 in 10.0 mi NE 3.5 mph - N/A   Clear
6:55 PM 70.3 °F 54.7 °F 58% 30.19 in 10.0 mi ENE 3.5 mph - N/A   Clear
7:15 PM 68.4 °F 54.7 °F 62% 30.20 in 10.0 mi Calm Calm - N/A   Clear
7:35 PM 67.5 °F 53.8 °F 61% 30.20 in 10.0 mi ENE 4.6 mph - N/A   Clear
7:55 PM 66.6 °F 53.4 °F 63% 30.20 in 10.0 mi ENE 4.6 mph - N/A   Clear
8:15 PM 65.8 °F 52.5 °F 62% 30.21 in 10.0 mi Calm Calm - N/A   Clear
8:35 PM 65.3 °F 52.0 °F 62% 30.22 in 10.0 mi ENE 4.6 mph - N/A   Clear
8:55 PM 64.2 °F 52.0 °F 64% 30.22 in 10.0 mi NE 3.5 mph - N/A   Clear
9:15 PM 63.5 °F 51.3 °F 64% 30.22 in 10.0 mi ENE 3.5 mph - N/A   Clear
9:35 PM 62.8 °F 50.9 °F 65% 30.22 in 10.0 mi NE 3.5 mph - N/A   Clear
9:55 PM 62.4 °F 50.5 °F 65% 30.23 in 10.0 mi Calm Calm - N/A   Clear
10:15 PM 61.7 °F 50.4 °F 66% 30.22 in 10.0 mi ENE 3.5 mph - N/A   Clear
10:35 PM 61.2 °F 50.5 °F 68% 30.22 in 10.0 mi Calm Calm - N/A   Clear
10:55 PM 60.1 °F 51.6 °F 74% 30.22 in 10.0 mi Calm Calm - N/A   Clear
11:15 PM 59.5 °F 52.3 °F 77% 30.22 in 10.0 mi Calm Calm - N/A   Clear
11:35 PM 59.2 °F 52.2 °F 78% 30.22 in 10.0 mi Calm Calm - N/A   Clear
11:55 PM 59.5 °F 52.0 °F 76% 30.23 in 10.0 mi Calm Calm - N/A   Mostly Cloudy